NOAA 16 DEB, 41078

Orbit data source: Space-Track

NOAA 16 DEB, 41078 is space debris in SSO originally from a launch on Thu, 21 Sep 2000 UTC launched from the Air Force Western Test Range (AFWTR). Debris objects in space refer to the collection of defunct objects orbiting the Earth. Examples of debris include non-operational satellites, rocket bodies, and fragments generated from explosions, collisions, or faulty payload assembly.

Loading next visibility...
NOAA 16 DEB details
Identifier
41078, 2000-055AM
Orbit
SSO
Last TLE update1 day ago
Origin
Flag of USNOAA (US)
ManufacturerUnknown
MissionSpacecraft
Bus & MotorUnknown
MassUnknown
Launch date (UTC)
2000-09-21 (24 years ago)
Launch vehicleUnknown
Launch site
Air Force Western Test Range (AFWTR)
Object type
Payload
Rocket body
Debris
Shape & HBRUnknown
Radar Cross SectionSmall (<0.1 m²)

Expand to show TLE details & history

TLE from 1 day ago
0 NOAA 16 DEB
1 41078U 00055AM  24360.36240023  .00000694  00000-0  77545-3 0  9995
2 41078  98.8660 155.0038 0289395 330.5723  27.9389 13.57834981449622
Epoch: 2024-12-25T08:41Z
Definitive object data (Epoch: 2024-12-25T08:41:51.379Z)
Latitude-0.00005°
Longitude-69.81751°
Altitude858.035 km
Speed7.517 km/s
True Right ascension10h 20m 00s
True Declination0° 00' 00"
Sunlit
Object was in daylight at TLE epoch
Visualization TLE readout
Latitude-67.57422°
Longitude-46.74591°
Altitude895.039 km
Speed7.491 km/s
Apparent Right ascension20h 32m 10s
Apparent Declination-76° 18' 37"
Sunlit
Object is in daylight
Visualization observer readout
Local Sidereal Time10:15:21
Azimuth170.393° S
Elevation-51.893°
Doppler factor1
Orbital elements
Apogee altitude1,255.518 km
Perigee altitude826.116 km
Semi-major axis7,418.954 km
Eccentricity0.0289395
Inclination98.866°
RAAN155.0038°
Arg. of periapsis330.5723°
True anomaly29.54366°
Mean anomaly27.9389°
Eccentric anomaly28.73608°
Mean motion3.39648 °/min
BSTAR0.00077545
Orbital period105.99 mins
Loading maneuver chart data...
Loading historical data...
Loading historical data...
Loading historical data...
Loading historical data...
Loading historical data...
Loading historical data...
Loading historical data...

NOAA 16 DEB Visibility forecast

Observer location: undefined°, undefined

Span
Click to sort rows by Start time (UTC) header in descending order
Start Az.
Max El. time (UTC)
Max El. Az.
Max El.
End time (UTC)
End Az.
10 mins2024-12-26 11:20:06.069Z205.276° SW2024-12-26 11:24:06.069Z257.655° W29.366°2024-12-26 11:30:06.069Z328.908° NNW
11 mins2024-12-26 22:27:06.069Z38.753° NE2024-12-26 22:32:06.069Z94.099° ESE30.443°2024-12-26 22:38:06.069Z156.356° SSE
12 mins2024-12-27 00:11:06.069Z358.17° N2024-12-27 00:17:06.069Z285.546° WNW36.171°2024-12-27 00:23:06.069Z223.867° SW
10 mins2024-12-27 10:20:06.069Z157.897° S2024-12-27 10:24:06.069Z109.731° ESE44.17°2024-12-27 10:30:06.069Z349.271° N
|